Volver al catálogo

SCOUT G-1 DEB

ActivoPO
NORAD 28675·DEBRIS·🇺🇸 United States

Lanzado Aug 25, 1988 desde Vandenberg Space Force Base

Loading…

Próximos Pases (próximas 24 horas)

TLE

EnvejeciendoSource: Space-Track

Época: Sep 9, 2026, 02:02 UTC

1 28675U 88074L   26252.08495462  .00000988  00000-0  14098-2 0  9999
2 28675  90.0117   9.0100 0079549 229.0550 259.5757 13.54323381624572

Sigue SCOUT G-1 DEB en tiempo real con AllMySat

Download on the App Store